Skip Page Navigation
NASA JPL Caltech
NASA Logo - Jet Propulsion Laboratory + View the NASA Portal
+ Center for Near-Earth Object Studies
JPL Home Earth Solar System Stars & Galaxies Technology
JPL Solar System Dynamics
BODIES ORBITS EPHEMERIDES TOOLS PHYSICAL DATA DISCOVERY FAQ SITE MAP
IMPORTANT: The SSD Announcement email list is now available. Major changes are coming in the near future, including possible hostname and/or URL changes. To be notified of such changes, subscribe to this email list.

Please visit this page for more details.


JPL Small-Body Database Browser
Search: [ help ]  
295702 (2008 TS183)
Classification: Main-belt Asteroid          SPK-ID: 2295702
Ephemeris | Orbit Diagram | Orbital Elements | Mission Design | Physical Parameters | Discovery Circumstances | Close-Approach Data ]

[ hide orbit diagram ]

For accurate long-term ephemerides, please instead use our Horizons system.This orbit viewer was implemented using two-body methods, and hence should not be used for determining accurate long-term trajectories (over several years or decades) or planetary encounter circumstances.


[ revert to old Java-based viewer ]

Orbital Elements at Epoch 2458600.5 (2019-Apr-27.0) TDB
Reference: JPL 13 (heliocentric ecliptic J2000)
 Element Value Uncertainty (1-sigma)   Units 
e .1494495649607929 5.5264e-08  
a 3.115257624772613 4.4999e-08 au
q 2.649683728009554 1.726e-07 au
i 5.623576309411227 6.6565e-06 deg
node 151.4624945289 7.1558e-05 deg
peri 113.4250877607476 7.5568e-05 deg
M 85.65870869991745 2.4947e-05 deg
tp 2458122.631503340010
(2018-Jan-04.13150334)
0.00013661 TDB
period 2008.349897034605
5.50
4.3515e-05
1.191e-07
d
yr
n .1792516336578362 3.8839e-09 deg/d
Q 3.580831521535674 5.1724e-08 au
  Orbit Determination Parameters
   # obs. used (total)      172  
   data-arc span      5426 days (14.86 yr)  
   first obs. used      2005-01-16  
   last obs. used      2019-11-25  
   planetary ephem.      DE431  
   SB-pert. ephem.      SB431-N16  
   condition code      0  
   norm. resid. RMS      .5601  
   source      ORB  
   producer      Otto Matic  
   solution date      2019-Dec-04 20:55:54  

Additional Information
 Earth MOID = 1.63999 au 
 Jupiter MOID = 1.54181 au 
 T_jup = 3.193 
[ show covariance matrix ]

Ephemeris | Orbit Diagram | Orbital Elements | Mission Design | Physical Parameters | Discovery Circumstances | Close-Approach Data ]

Physical Parameter Table
Parameter Symbol Value Units Sigma Reference Notes
absolute magnitude H 16.0   n/a MPO455186  

295702 (2008 TS183)          Discovered 2008-Oct-02 by Spacewatch at Kitt Peak
Reference: 20110912/Numbers.arcLast Updated: 2011-09-14

[ show close-approach data ]
Ephemeris | Orbit Diagram | Orbital Elements | Mission Design | Physical Parameters | Discovery Circumstances | Close-Approach Data ]
ABOUT SSD CREDITS/AWARDS PRIVACY/COPYRIGHT GLOSSARY LINKS
FirstGov 2019-Dec-10 05:36 UT
(server date/time)  
NASA Home Page
Site Manager:   Ryan S. Park
Webmaster  Alan B. Chamberlin